"Pseudo-MPEC" for P10QBQm

Created 2019 Aug 14 20:07:06 UT using Find_Orb

Click here for an explanation of pseudo-MPECs

 
 Astrometry: 
     P10QBQm  C2019 08 12e5Dt(CVdI2wBu[#AstrometryMredacted;iesN9FqqqAJ4-VHrEF51
     P10QBQm  C2019 08 12GGMj#7mih6eImllXeAKe8v]YFq@WtlA9*epuX`dH%goclickqZ'6F51
     P10QBQm  C2019 08 12!,!here9)8LOdF,88cY,mxh0,3At(forlexplanationT0(/^Ev(F51
     P10QBQm  C2019 08 12O:N[RfxeLkcO4tE@aAni3Hy1Tg;*ojECQd$q6pZ?^.e$o,s9?u85F51
     P10QBQm ^C2019 08 13.39272522 15 31.476+07 06 10.96   ~8DI7 21.03GVNEOCP568
     P10QBQm ^C2019 08 13.39391122 15 31.768+07 06 10.63   ~8DI7 21.10GVNEOCP568
     P10QBQm ^C2019 08 13.39510222 15 32.055+07 06 10.28   ~8DI7 21.27GVNEOCP568
     P10QBQm ^C2019 08 14.50915822 20 37.881+06 59 23.73   ~8EIq 21.03GVNEOCP568
     P10QBQm ^C2019 08 14.51070922 20 38.276+06 59 23.19   ~8EIq 21.42GVNEOCP568
     P10QBQm ^C2019 08 14.51224522 20 38.658+06 59 22.38   ~8EIq 21.36GVNEOCP568

Station data:
(568) Mauna Kea  (N19.826116 W155.472200)  US/Hawaii.
(F51) Pan-STARRS 1, Haleakala  (N20.707235 W156.255910)  US/Hawaii.
   Observers N. Primak, A. Schultz, S. Watters, J. Thiel, T. Goggia. Measurer
   PS1 Science Consortium. 1.8-m Ritchey-Chrétien + CCD.

Orbital elements:  P10QBQm
   Perihelion 2019 Sep 12.349209 +/- 0.725 TT =  8:22:51 (JD 2458738.849209)
Epoch 2019 Aug 14.0 TT = JDT 2458709.5   Earth MOID: 0.0750   AutoNEOCP
M 345.03409950 +/- 0.6              (J2000 ecliptic)
n   0.50992517 +/- 0.0115           Peri.  190.69930 +/- 0.9
a   1.55166660 +/- 0.0233           Node   160.42892 +/- 0.20
e   0.3034571 +/- 0.00843           Incl.    5.08432 +/- 0.06
P   1.93/705.97d           H 25.2   G  0.15   U  9.7  
q 1.08080234 +/- 0.00322    Q 2.02253086 +/- 0.0444
From 10 observations 2019 Aug. 12-14 (46.3 hr); mean residual 0".05
Residuals in arcseconds: 
190812 F51  .10+  .03-    190813 568  .01-  .04-    190814 568  .05+  .10+    
190812 F51  .08-  .01-    190813 568  .03+  .01-    190814 568  .03-  .06-    
190812 F51  .01-  .00     190813 568  .02-  .01-    
190812 F51  .01-  .07+    190814 568  .02-  .02-    

Ephemerides (geocentric):
Date (UTC) HH   RA              Dec         delta   r     elong  mag " sig PA
---- -- -- --  -------------   -----------  ------ ------ -----  --- ---- ---
2019 08 14 20  22 22 11.585   +06 57 26.25  .10673 1.1111 155.7 21.7 1.84  85
2019 08 14 21  22 22 23.533   +06 57 08.23  .10664 1.1111 155.8 21.7 2.05  86
2019 08 14 22  22 22 35.498   +06 56 50.08  .10654 1.1110 155.8 21.6 2.26  87
2019 08 14 23  22 22 47.480   +06 56 31.79  .10645 1.1109 155.8 21.6 2.48  88
2019 08 15 00  22 22 59.480   +06 56 13.37  .10636 1.1108 155.8 21.6 2.71  89
2019 08 15 01  22 23 11.498   +06 55 54.82  .10627 1.1107 155.8 21.6 2.94  90
2019 08 15 02  22 23 23.533   +06 55 36.13  .10618 1.1106 155.8 21.6 3.19  90
2019 08 15 03  22 23 35.586   +06 55 17.31  .10608 1.1105 155.8 21.6 3.44  91
2019 08 15 04  22 23 47.656   +06 54 58.36  .10599 1.1105 155.8 21.6 3.70  92
2019 08 15 05  22 23 59.744   +06 54 39.27  .10590 1.1104 155.8 21.6 3.97  92
2019 08 15 06  22 24 11.849   +06 54 20.05  .10581 1.1103 155.9 21.6 4.25  93
2019 08 15 07  22 24 23.972   +06 54 00.70  .10572 1.1102 155.9 21.6 4.54  93
2019 08 15 08  22 24 36.113   +06 53 41.21  .10563 1.1101 155.9 21.6 4.83  93
2019 08 15 09  22 24 48.271   +06 53 21.58  .10554 1.1100 155.9 21.6 5.14  94
2019 08 15 10  22 25 00.447   +06 53 01.83  .10545 1.1100 155.9 21.6 5.45  94
2019 08 15 11  22 25 12.640   +06 52 41.93  .10535 1.1099 155.9 21.6 5.77  94
2019 08 15 12  22 25 24.851   +06 52 21.90  .10526 1.1098 155.9 21.6 6.10  94
2019 08 15 13  22 25 37.079   +06 52 01.73  .10517 1.1097 155.9 21.6 6.44  95
2019 08 15 14  22 25 49.325   +06 51 41.43  .10508 1.1096 155.9 21.6 6.78  95
2019 08 15 15  22 26 01.589   +06 51 21.00  .10499 1.1095 155.9 21.6 7.14  95
2019 08 15 16  22 26 13.870   +06 51 00.42  .10490 1.1094 156.0 21.6 7.50  95
2019 08 15 17  22 26 26.169   +06 50 39.71  .10481 1.1094 156.0 21.6 7.87  95
2019 08 15 18  22 26 38.486   +06 50 18.87  .10473 1.1093 156.0 21.6 8.25  95
2019 08 15 19  22 26 50.820   +06 49 57.88  .10464 1.1092 156.0 21.6 8.64  96
2019 08 15 20  22 27 03.172   +06 49 36.76  .10455 1.1091 156.0 21.6 9.04  96
2019 08 15 21  22 27 15.541   +06 49 15.50  .10446 1.1090 156.0 21.6 9.45  96
2019 08 15 22  22 27 27.928   +06 48 54.11  .10437 1.1089 156.0 21.6 9.86  96
2019 08 15 23  22 27 40.333   +06 48 32.58  .10428 1.1089 156.0 21.6 10.3  96
2019 08 16 00  22 27 52.755   +06 48 10.91  .10419 1.1088 156.0 21.6 10.7  96
2019 08 16 01  22 28 05.195   +06 47 49.10  .10410 1.1087 156.0 21.6 11.2  96
2019 08 16 02  22 28 17.653   +06 47 27.15  .10401 1.1086 156.1 21.6 11.6  96
2019 08 16 03  22 28 30.128   +06 47 05.07  .10393 1.1085 156.1 21.6 12.1  96
2019 08 16 04  22 28 42.621   +06 46 42.85  .10384 1.1084 156.1 21.6 12.5  97
2019 08 16 05  22 28 55.131   +06 46 20.48  .10375 1.1084 156.1 21.6 13.0  97
2019 08 16 06  22 29 07.659   +06 45 57.98  .10366 1.1083 156.1 21.6 13.5  97
2019 08 16 07  22 29 20.205   +06 45 35.34  .10358 1.1082 156.1 21.6 14.0  97
2019 08 16 08  22 29 32.769   +06 45 12.56  .10349 1.1081 156.1 21.6 14.5  97
2019 08 16 09  22 29 45.350   +06 44 49.64  .10340 1.1080 156.1 21.6 15.0  97
2019 08 16 10  22 29 57.949   +06 44 26.59  .10331 1.1080 156.1 21.6 15.5  97
2019 08 16 11  22 30 10.565   +06 44 03.39  .10323 1.1079 156.1 21.6 16.1  97
2019 08 16 12  22 30 23.199   +06 43 40.05  .10314 1.1078 156.2 21.6 16.6  97
2019 08 16 13  22 30 35.851   +06 43 16.57  .10305 1.1077 156.2 21.6 17.2  97
2019 08 16 14  22 30 48.521   +06 42 52.95  .10297 1.1076 156.2 21.6 17.7  97
2019 08 16 15  22 31 01.208   +06 42 29.19  .10288 1.1075 156.2 21.6 18.3  97
2019 08 16 16  22 31 13.912   +06 42 05.29  .10279 1.1075 156.2 21.6 18.9  97
2019 08 16 17  22 31 26.635   +06 41 41.25  .10271 1.1074 156.2 21.6 19.5  97
2019 08 16 18  22 31 39.375   +06 41 17.07  .10262 1.1073 156.2 21.6 20.1  97
2019 08 16 19  22 31 52.133   +06 40 52.74  .10254 1.1072 156.2 21.5 20.7  97